Stations météo

réclame
Mon MeteoGroup
Don Benito, Espagne (8333): Température de l'air & dewpoint: 12.06.2018 15:00:00 - 18.06.2018 15:00:00 (CEST)Don Benito, Espagne (8333): Vitesse du vent & gusts: 12.06.2018 15:00:00 - 18.06.2018 15:00:00 (CEST)Don Benito, Espagne (8333): Direction du vent: 12.06.2018 15:00:00 - 18.06.2018 15:00:00 (CEST)Don Benito, Espagne (8333): reduced air pressure: 12.06.2018 15:00:00 - 18.06.2018 15:00:00 (CEST)Don Benito, Espagne (8333): visibility: 12.06.2018 15:00:00 - 18.06.2018 15:00:00 (CEST)Don Benito, Espagne (8333): Ensoleillement: 12.06.2018 15:00:00 - 18.06.2018 15:00:00 (CEST)Don Benito, Espagne (8333): Quantités de précipitations: 12.06.2018 15:00:00 - 18.06.2018 15:00:00 (CEST)
Date & Time tt [°C] td [°C] ff [km/h] ff [knt] fx [km/h] fx [knt] dd ppp [hPa] vv [km] sd [min] rr [mm]
18.06.2018 15:00:00 35,3 7,4 9 5 26 14 NNE 1016,1 19 60 0,0
18.06.2018 14:00:00 34,7 6,1 7 4 28 15 ENE 1016,6 20 60 -
18.06.2018 13:00:00 33,7 6,8 11 6 32 17 ENE 1017,3 20 60 0,0
18.06.2018 12:00:00 31,8 9,3 8 4 22 12 NE 1017,7 20 60 0,0
18.06.2018 11:00:00 28,2 9,4 9 5 21 11 NE 1018,2 20 60 0,0
18.06.2018 10:00:00 25,2 10,3 5 3 11 6 NE 1018,8 17 17 0,0
18.06.2018 09:00:00 24,3 7,8 4 2 10 5 NE 1018,7 20 0 0,0
18.06.2018 08:00:00 23,2 8,1 4 2 10 6 ENE 1018,3 20 0 -
18.06.2018 07:00:00 22,6 10,8 3 2 13 7 NNE 1018,1 20 0 0,0
18.06.2018 06:00:00 23,0 9,8 3 2 10 5 S 1017,7 20 0 0,0
18.06.2018 05:00:00 24,5 8,0 5 3 18 10 ENE 1017,7 20 0 0,0
18.06.2018 04:00:00 25,5 7,6 7 4 19 10 ENE 1017,4 20 0 0,0
18.06.2018 03:00:00 26,3 8,3 6 3 19 10 ENE 1017,2 20 0 0,0
18.06.2018 02:00:00 25,8 9,6 9 5 22 12 NE 1017,4 20 0 -
18.06.2018 01:00:00 27,5 7,8 5 3 18 10 NNE 1017,3 20 0 0,0
18.06.2018 00:00:00 28,1 8,9 4 2 17 9 NNE 1017,0 20 0 0,0
17.06.2018 23:00:00 29,8 8,3 5 3 19 10 NNE 1016,1 20 0 0,0
17.06.2018 22:00:00 32,3 8,5 7 4 20 11 N 1015,3 20 7 0,0
17.06.2018 21:00:00 34,8 9,9 6 4 16 9 NNW 1014,7 20 52 0,0
17.06.2018 20:00:00 36,2 7,3 8 4 14 8 NNW 1014,4 20 60 -
17.06.2018 19:00:00 37,3 7,3 5 3 18 10 NE 1014,3 20 60 0,0
17.06.2018 18:00:00 37,0 8,0 6 3 21 11 NE 1014,4 20 60 0,0
17.06.2018 17:00:00 36,2 6,4 9 5 28 15 NNW 1014,7 20 60 0,0
17.06.2018 16:00:00 36,2 7,3 9 5 22 12 NNW 1014,9 20 60 0,0
17.06.2018 15:00:00 35,9 5,1 7 4 23 13 NE 1015,4 20 60 0,0
17.06.2018 14:00:00 35,1 8,0 5 3 16 9 NNE 1015,8 20 60 -
17.06.2018 13:00:00 33,2 9,9 6 4 17 9 NNE 1016,0 20 60 0,0
17.06.2018 12:00:00 31,7 10,4 6 3 19 10 NNE 1016,1 20 60 0,0
17.06.2018 11:00:00 29,4 10,5 5 3 13 7 NNE 1016,2 20 60 0,0
17.06.2018 10:00:00 27,0 11,1 5 3 11 6 NE 1016,2 20 60 0,0
17.06.2018 09:00:00 22,8 13,3 1 1 7 4 NNE 1016,5 20 19 0,0
17.06.2018 08:00:00 20,5 12,7 3 2 7 4 NNW 1016,2 20 0 -
17.06.2018 07:00:00 19,5 11,6 3 2 5 3 SSE 1015,8 20 0 0,0
17.06.2018 06:00:00 20,1 12,1 1 1 8 4 SE 1015,2 20 0 0,0
17.06.2018 05:00:00 20,9 12,3 2 1 7 4 S 1015,0 20 0 0,0
17.06.2018 04:00:00 22,7 12,6 3 1 6 3 NW 1014,6 20 0 0,0
17.06.2018 03:00:00 23,3 12,3 3 1 5 3 NNW 1014,3 20 0 0,0
17.06.2018 02:00:00 25,2 13,1 2 1 14 7 ENE 1014,0 20 0 -
17.06.2018 01:00:00 26,2 11,9 3 2 11 6 NNE 1013,6 20 0 0,0
17.06.2018 00:00:00 27,2 13,2 5 3 13 7 N 1012,8 20 0 0,0
16.06.2018 23:00:00 28,6 11,7 4 2 11 6 N 1012,1 20 0 0,0
16.06.2018 22:00:00 30,7 11,1 5 3 13 7 NW 1011,1 20 7 0,0
16.06.2018 21:00:00 33,4 10,6 5 3 18 10 NNW 1010,7 20 52 0,0
16.06.2018 20:00:00 34,6 9,8 7 4 16 9 NNW 1010,4 20 60 -
16.06.2018 19:00:00 35,1 8,0 4 2 19 11 NNE 1010,4 20 60 0,0
16.06.2018 18:00:00 34,9 7,8 6 3 18 10 NNW 1010,7 20 60 0,0
16.06.2018 17:00:00 34,5 8,3 6 3 18 10 N 1011,0 20 60 0,0
16.06.2018 16:00:00 33,5 9,6 6 3 15 8 NW 1011,5 20 60 0,0
16.06.2018 15:00:00 32,4 12,6 4 2 15 8 NNW 1012,1 20 60 0,0
16.06.2018 14:00:00 30,1 12,5 3 2 12 7 N 1012,8 20 60 -
16.06.2018 13:00:00 27,6 12,7 4 2 13 7 NNW 1013,5 19 60 0,0
16.06.2018 12:00:00 25,7 13,9 4 2 12 6 SW 1013,9 20 60 0,0
16.06.2018 11:00:00 21,8 13,7 5 3 13 7 WNW 1014,4 20 60 0,0
16.06.2018 10:00:00 20,1 13,8 6 3 19 10 WSW 1014,4 20 60 0,0
16.06.2018 09:00:00 17,7 13,5 9 5 19 10 WSW 1014,2 20 18 0,0
16.06.2018 08:00:00 15,8 13,0 10 5 20 11 WSW 1014,0 20 0 -
16.06.2018 07:00:00 15,9 12,8 9 5 19 10 WSW 1013,6 20 0 0,0
16.06.2018 06:00:00 16,5 12,8 11 6 24 13 WSW 1013,1 20 0 0,0
16.06.2018 05:00:00 17,3 12,8 12 6 25 13 WSW 1013,2 20 0 0,0
16.06.2018 04:00:00 18,4 13,1 11 6 25 13 WSW 1013,2 20 0 0,0
16.06.2018 03:00:00 19,7 13,0 11 6 31 17 WSW 1013,1 20 0 0,0
16.06.2018 02:00:00 21,2 13,2 14 7 31 17 WSW 1012,9 20 0 -
16.06.2018 01:00:00 23,3 13,2 9 5 22 12 WSW 1012,6 20 0 0,0
16.06.2018 00:00:00 25,4 12,6 9 5 21 12 WSW 1012,1 20 0 0,0
15.06.2018 23:00:00 27,1 12,7 7 4 18 10 W 1011,3 20 0 0,0
15.06.2018 22:00:00 29,7 11,2 7 4 16 9 W 1010,4 20 7 0,0
15.06.2018 21:00:00 33,8 7,0 8 5 19 11 WSW 1009,8 20 52 0,0
15.06.2018 20:00:00 35,1 5,5 9 5 26 14 W 1009,7 20 60 -
15.06.2018 19:00:00 35,6 6,8 5 3 19 11 SW 1009,7 20 60 0,0
15.06.2018 18:00:00 35,1 6,4 5 3 16 9 WNW 1010,4 20 60 0,0
15.06.2018 17:00:00 34,3 5,8 6 3 19 11 W 1011,1 20 60 0,0
15.06.2018 16:00:00 33,8 4,5 8 4 18 10 W 1011,9 20 60 0,0
15.06.2018 15:00:00 33,2 5,6 6 3 17 9 SW 1012,6 20 60 0,0
15.06.2018 14:00:00 31,1 8,1 6 4 17 9 WNW 1013,4 20 60 -
15.06.2018 13:00:00 29,3 7,3 5 3 14 7 NNW 1014,1 20 60 0,0
15.06.2018 12:00:00 27,8 8,1 4 2 9 5 N 1014,4 20 60 0,0
15.06.2018 11:00:00 25,5 8,5 2 1 9 5 N 1015,1 20 60 0,0
15.06.2018 10:00:00 22,6 8,0 3 2 8 4 WNW 1015,3 20 60 0,0
15.06.2018 09:00:00 19,3 8,9 3 2 8 4 SW 1015,1 20 20 0,0
15.06.2018 08:00:00 16,0 7,7 2 1 8 4 SSE 1015,4 20 0 -
15.06.2018 07:00:00 16,0 6,7 4 2 8 5 S 1014,9 20 0 0,0
15.06.2018 06:00:00 16,7 7,1 0 0 7 4 N 1014,7 20 0 0,0
15.06.2018 05:00:00 17,6 6,7 2 1 5 3 S 1014,6 20 0 0,0
15.06.2018 04:00:00 18,6 7,4 1 1 6 3 NNE 1014,4 20 0 0,0
15.06.2018 03:00:00 19,4 5,8 2 1 6 4 S 1014,4 20 0 0,0
15.06.2018 02:00:00 20,2 6,1 4 2 9 5 S 1014,6 20 0 -
15.06.2018 01:00:00 21,5 7,0 3 2 8 4 SSW 1014,6 20 0 0,0
15.06.2018 00:00:00 23,0 9,8 1 1 10 5 WNW 1014,1 20 0 0,0
14.06.2018 23:00:00 25,1 7,3 4 2 11 6 NNW 1013,7 20 0 0,0
14.06.2018 22:00:00 27,5 6,8 4 2 8 5 NNW 1013,1 20 8 0,0
14.06.2018 21:00:00 29,9 4,5 6 3 16 9 N 1012,5 20 52 0,0
14.06.2018 20:00:00 30,4 5,0 9 5 23 13 NNW 1012,5 20 60 -
14.06.2018 19:00:00 30,7 4,5 8 5 21 12 N 1012,5 20 60 0,0
14.06.2018 18:00:00 30,7 5,1 7 4 19 10 W 1012,7 20 60 0,0
14.06.2018 17:00:00 31,0 6,8 4 2 17 9 E 1013,1 20 60 0,0
14.06.2018 16:00:00 29,1 6,4 6 3 20 11 NE 1013,9 20 60 0,0
14.06.2018 15:00:00 29,2 6,5 5 3 16 8 NNE 1014,5 20 60 0,0
14.06.2018 14:00:00 28,4 7,6 6 3 21 11 NNE 1014,8 20 60 -
14.06.2018 13:00:00 27,1 8,0 5 3 16 9 NNE 1015,1 20 60 0,0
14.06.2018 12:00:00 25,6 8,1 5 3 13 7 NE 1015,5 20 60 0,0
14.06.2018 11:00:00 23,2 10,3 5 3 12 7 ENE 1015,7 20 60 0,0
14.06.2018 10:00:00 20,0 12,0 3 2 9 5 N 1016,2 20 60 0,0
14.06.2018 09:00:00 17,5 12,0 4 2 10 5 SW 1016,2 20 20 0,0
14.06.2018 08:00:00 15,0 11,3 4 2 9 5 S 1016,2 17 0 -
14.06.2018 07:00:00 14,9 11,4 4 2 8 5 WSW 1016,0 17 0 0,0
14.06.2018 06:00:00 15,4 10,5 4 2 11 6 SSW 1015,8 20 0 0,0
14.06.2018 05:00:00 16,0 8,9 6 3 12 7 SW 1015,8 20 0 0,0
14.06.2018 04:00:00 16,8 8,3 6 3 10 5 SW 1015,8 20 0 0,0
14.06.2018 03:00:00 17,9 8,1 5 3 10 5 S 1015,8 20 0 0,0
14.06.2018 02:00:00 19,3 9,2 4 2 9 5 SSW 1015,7 20 0 -
14.06.2018 01:00:00 21,5 8,0 4 2 14 8 N 1015,6 20 0 0,0
14.06.2018 00:00:00 22,9 7,8 6 3 16 8 N 1015,2 20 0 0,0
13.06.2018 23:00:00 24,2 8,5 5 3 10 5 NNW 1014,4 20 0 0,0
13.06.2018 22:00:00 25,9 7,4 4 2 18 10 NNW 1013,9 20 0 0,0
13.06.2018 21:00:00 28,2 6,8 10 5 26 14 NNW 1013,7 20 51 0,0
13.06.2018 20:00:00 29,0 6,4 15 8 29 16 NW 1013,5 20 48 -
13.06.2018 19:00:00 30,0 6,5 11 6 27 15 NW 1013,5 20 50 0,0
13.06.2018 18:00:00 29,8 7,7 8 4 21 11 NW 1014,0 20 56 0,0
13.06.2018 17:00:00 29,4 9,6 9 5 22 12 NW 1014,6 20 58 0,0
13.06.2018 16:00:00 28,8 8,5 6 3 24 13 NW 1015,3 20 60 0,0
13.06.2018 15:00:00 27,5 9,8 7 4 19 11 NNW 1016,3 20 60 0,0
13.06.2018 14:00:00 25,4 10,8 8 5 19 11 NW 1017,1 20 60 -
13.06.2018 13:00:00 24,9 12,1 4 2 16 9 WSW 1017,6 20 60 0,0
13.06.2018 12:00:00 22,1 12,3 5 3 15 8 WNW 1018,2 20 60 0,0
13.06.2018 11:00:00 19,9 12,1 6 4 18 10 WSW 1018,2 18 60 0,0
13.06.2018 10:00:00 17,8 12,0 9 5 22 12 WSW 1018,7 20 60 0,0
13.06.2018 09:00:00 15,4 12,0 13 7 26 14 SW 1018,9 20 22 0,0
13.06.2018 08:00:00 13,8 11,7 11 6 25 13 WSW 1018,9 20 0 -
13.06.2018 07:00:00 13,9 11,4 13 7 25 13 WSW 1018,6 20 0 0,0
13.06.2018 06:00:00 14,5 11,7 11 6 23 12 WSW 1018,1 20 0 0,0
13.06.2018 05:00:00 15,4 12,1 10 6 24 13 WSW 1018,2 20 0 0,0
13.06.2018 04:00:00 16,3 12,4 13 7 26 14 WSW 1018,1 20 0 0,0
13.06.2018 03:00:00 17,5 12,8 11 6 21 11 SW 1018,0 20 0 0,0
13.06.2018 02:00:00 18,8 13,0 9 5 22 12 WSW 1017,7 20 0 -
13.06.2018 01:00:00 20,1 13,6 9 5 18 10 WSW 1017,6 20 0 0,0
13.06.2018 00:00:00 21,5 13,2 7 4 24 13 WSW 1016,9 20 0 0,0
12.06.2018 23:00:00 23,3 11,0 9 5 21 12 W 1016,0 20 0 0,0
12.06.2018 22:00:00 25,1 7,7 5 3 18 10 WNW 1014,9 20 5 0,0
12.06.2018 21:00:00 27,7 7,0 8 4 22 12 WNW 1014,3 20 52 0,0
12.06.2018 20:00:00 29,1 7,0 8 4 22 12 W 1013,9 20 58 -
12.06.2018 19:00:00 28,6 7,3 8 4 25 13 WNW 1014,0 20 58 0,0
12.06.2018 18:00:00 28,5 7,7 10 5 20 11 W 1014,3 20 53 0,0
12.06.2018 17:00:00 27,8 8,1 8 4 24 13 WNW 1014,8 20 59 0,0
12.06.2018 16:00:00 27,1 8,0 9 5 33 18 WNW 1015,3 20 57 0,0
12.06.2018 15:00:00 26,0 10,5 7 4 28 15 W 1016,0 20 51 0,0

tt = Température de l'air
td = dewpoint
ff = Vitesse du vent
fx = gusts
dd = Direction du vent
ppp = reduced air pressure
vv = visibility
sd = Ensoleillement
rr = Quantités de précipitations

stations d'obs. à proximité